Location: Linz
(48.3300°N, 14.3000°E)
Time: 21:27:41
(UTC+01:00)

OTV 5 (USA 277) - Pass Details

Date: 19 November 2017
Orbit: 404 x 417 km, 43.0° (Epoch: 07 September)

Event Time Altitude Azimuth Distance (km) Brightness Sun altitude
Exits shadow 05:37:38 14° 214° (SSW) 1,240 ? -16.1°
Maximum altitude 05:38:03 14° 205° (SSW) 1,227 ? -16.1°
Drops below altitude 10° 05:39:53 10° 171° (S) 1,451 ? -15.8°
Sets 05:42:40 0° 145° (SE) 2,307 ? -15.3°
